H1 CPF 2 NER 2023 3 10 9 069 01 glonass143 H2 2007501 9143 46805 2023 3 10 0 0 0 2023 3 13 23 45 0 900 1 1 0 0 0 1 H9 10 0 60013 0.00000 0 -6838050.934 -23344077.162 -7652304.641 10 0 60013 900.00000 0 -6449320.410 -22277250.660 -10600800.892 10 0 60013 1800.00000 0 -5804798.010 -20940443.083 -13343170.638 10 0 60013 2700.00000 0 -4882412.754 -19389016.409 -15826098.319 10 0 60013 3600.00000 0 -3671940.201 -17683717.354 -18001323.176 10 0 60013 4500.00000 0 -2175696.778 -15888149.306 -19826578.721 10 0 60013 5400.00000 0 -408704.693 -14066144.765 -21266413.901 10 0 60013 6300.00000 0 1601680.496 -12279148.711 -22292880.241 10 0 60013 7200.00000 0 3816664.993 -10583722.538 -22886071.938 10 0 60013 8100.00000 0 6187397.968 -9029272.796 -23034508.910 10 0 60013 9000.00000 0 8656781.980 -7656099.210 -22735355.858 10 0 60013 9900.00000 0 11161637.799 -6493842.885 -21994473.485 10 0 60013 10800.00000 0 13635134.095 -5560398.599 -20826301.233 10 0 60013 11700.00000 0 16009381.405 -4861335.586 -19253573.973 10 0 60013 12600.00000 0 18218082.892 -4389849.868 -17306878.204 10 0 60013 13500.00000 0 20199131.989 -4127248.868 -15024056.323 10 0 60013 14400.00000 0 21897049.152 -4043946.792 -12449470.375 10 0 60013 15300.00000 0 23265156.499 -4100927.812 -9633139.486 10 0 60013 16200.00000 0 24267400.015 -4251614.423 -6629767.612 10 0 60013 17100.00000 0 24879743.623 -4444061.352 -3497680.470 10 0 60013 18000.00000 0 25091077.274 -4623381.670 -297692.382 10 0 60013 18900.00000 0 24903601.579 -4734301.970 2908074.779 10 0 60013 19800.00000 0 24332673.396 -4723738.112 6057397.458 10 0 60013 20700.00000 0 23406119.396 -4543282.151 9089157.401 10 0 60013 21600.00000 0 22163046.898 -4151494.924 11944526.233 10 0 60013 22500.00000 0 20652202.247 -3515907.005 14568104.600 10 0 60013 23400.00000 0 18929945.818 -2614643.081 16908993.851 10 0 60013 24300.00000 0 17057928.603 -1437600.684 18921779.788 10 0 60013 25200.00000 0 15100567.510 12867.134 20567409.822 10 0 60013 26100.00000 0 13122424.683 1721794.791 21813947.031 10 0 60013 27000.00000 0 11185599.884 3661980.578 22637187.062 10 0 60013 27900.00000 0 9347244.134 5794882.079 23021126.408 10 0 60013 28800.00000 0 7657297.701 8071994.621 22958273.347 10 0 60013 29700.00000 0 6156545.975 10436656.758 22449795.659 10 0 60013 30600.00000 0 4875073.601 12826209.050 21505502.169 10 0 60013 31500.00000 0 3831180.669 15174417.517 20143658.119 10 0 60013 32400.00000 0 3030805.598 17414062.048 18390637.393 10 0 60013 33300.00000 0 2467478.280 19479582.818 16280417.576 10 0 60013 34200.00000 0 2122804.986 21309674.981 13853926.873 10 0 60013 35100.00000 0 1967464.209 22849723.660 11158254.766 10 0 60013 36000.00000 0 1962671.149 24053977.544 8245741.104 10 0 60013 36900.00000 0 2062048.677 24887369.909 5172960.901 10 0 60013 37800.00000 0 2213825.255 25326910.472 1999624.442 10 0 60013 38700.00000 0 2363266.314 25362589.270 -1212585.830 10 0 60013 39600.00000 0 2455235.390 24997754.285 -4401218.562 10 0 60013 40500.00000 0 2436775.751 24248946.648 -7504272.894 10 0 60013 41400.00000 0 2259602.125 23145200.294 -10461409.579 10 0 60013 42300.00000 0 1882396.013 21726835.542 -13215129.504 10 0 60013 43200.00000 0 1272806.301 20043797.532 -15711896.026 10 0 60013 44100.00000 0 409069.538 18153609.636 -17903178.844 10 0 60013 45000.00000 0 -718819.632 16119028.084 -19746398.795 10 0 60013 45900.00000 0 -2108438.219 14005496.451 -21205755.185 10 0 60013 46800.00000 0 -3744794.022 11878506.824 -22252919.798 10 0 60013 47700.00000 0 -5600720.934 9800978.026 -22867584.402 10 0 60013 48600.00000 0 -7637794.732 7830760.312 -23037851.632 10 0 60013 49500.00000 0 -9807731.791 6018370.178 -22760462.141 10 0 60013 50400.00000 0 -12054213.012 4405049.213 -22040854.009 10 0 60013 51300.00000 0 -14315057.430 3021226.968 -20893053.661 10 0 60013 52200.00000 0 -16524655.472 1885450.903 -19339400.537 10 0 60013 53100.00000 0 -18616560.821 1003826.810 -17410110.944 10 0 60013 54000.00000 0 -20526133.243 369991.721 -15142689.519 10 0 60013 54900.00000 0 -22193122.460 -34380.965 -12581199.545 10 0 60013 55800.00000 0 -23564085.451 -238566.702 -9775406.192 10 0 60013 56700.00000 0 -24594536.441 -281309.291 -6779809.209 10 0 60013 57600.00000 0 -25250739.880 -208938.155 -3652583.804 10 0 60013 58500.00000 0 -25511071.597 -73163.755 -454450.389 10 0 60013 59400.00000 0 -25366891.350 71354.926 2752504.695 10 0 60013 60300.00000 0 -24822890.501 169567.371 5906034.410 10 0 60013 61200.00000 0 -23896900.484 168604.325 8944938.527 10 0 60013 62100.00000 0 -22619170.428 20257.203 11810249.831 10 0 60013 63000.00000 0 -21031144.366 -316741.097 14446376.000 10 0 60013 63900.00000 0 -19183789.422 -874730.672 16802175.044 10 0 60013 64800.00000 0 -17135544.931 -1675518.600 18831943.762 10 0 60013 65700.00000 0 -14949978.042 -2729220.673 20496300.465 10 0 60013 66600.00000 0 -12693243.409 -4033600.311 21762945.367 10 0 60013 67500.00000 0 -10431452.418 -5573933.366 22607284.444 10 0 60013 68400.00000 0 -8228060.928 -7323405.624 23012905.205 10 0 60013 69300.00000 0 -6141383.590 -9244027.639 22971895.480 10 0 60013 70200.00000 0 -4222337.374 -11288030.094 22484999.246 10 0 60013 71100.00000 0 -2512507.408 -13399682.869 21561606.336 10 0 60013 72000.00000 0 -1042614.873 -15517463.260 20219575.934 10 0 60013 72900.00000 0 168549.953 -17576484.126 18484896.681 10 0 60013 73800.00000 0 1114685.674 -19511081.634 16391189.259 10 0 60013 74700.00000 0 1802006.094 -21257455.217 13979060.289 10 0 60013 75600.00000 0 2248734.365 -22756249.812 11295319.339 10 0 60013 76500.00000 0 2484086.806 -23954972.391 8392073.537 10 0 60013 77400.00000 0 2546789.718 -24810141.333 5325717.012 10 0 60013 78300.00000 0 2483192.359 -25289078.066 2155834.607 10 0 60013 79200.00000 0 2345056.471 -25371265.198 -1055958.725 10 0 60013 80100.00000 0 2187116.620 -25049213.449 -4247219.819 10 0 60013 81000.00000 0 2064515.486 -24328800.406 -7355896.545 10 0 60013 81900.00000 0 2030223.682 -23229066.391 -10321539.971 10 0 60013 82800.00000 0 2132554.361 -21781475.767 -13086485.072 10 0 60013 83700.00000 0 2412878.874 -20028674.609 -15596976.387 10 0 60013 84600.00000 0 2903641.100 -18022796.921 -17804216.216 10 0 60013 85500.00000 0 3626755.324 -15823390.606 -19665314.690 10 0 60014 0.00000 0 4592456.063 -13495050.424 -21144123.093 10 0 60014 900.00000 0 5798649.717 -11104855.805 -22211935.156 10 0 60014 1800.00000 0 7230794.729 -8719723.713 -22848041.152 10 0 60014 2700.00000 0 8862317.750 -6403782.688 -23040127.156 10 0 60014 3600.00000 0 10655547.806 -4215880.224 -22784510.112 10 0 60014 4500.00000 0 12563130.446 -2207325.490 -22086205.480 10 0 60014 5400.00000 0 14529863.239 -419960.761 -20958826.316 10 0 60014 6300.00000 0 16494876.414 1115359.203 -19424315.931 10 0 60014 7200.00000 0 18394067.960 2379817.659 -17512519.407 10 0 60014 8100.00000 0 20162691.803 3367173.847 -15260602.201 10 0 60014 9000.00000 0 21737991.161 4083767.402 -12712327.013 10 0 60014 9900.00000 0 23061767.140 4547990.542 -9917202.826 10 0 60014 10800.00000 0 24082775.207 4789251.614 -6929522.540 10 0 60014 11700.00000 0 24758849.271 4846474.957 -3807307.859 10 0 60014 12600.00000 0 25058664.391 4766201.442 -611182.014 10 0 60014 13500.00000 0 24963064.252 4600370.866 2596807.631 10 0 60014 14400.00000 0 24465897.769 4403880.668 5754394.047 10 0 60014 15300.00000 0 23574329.750 4232024.783 8800298.439 10 0 60014 16200.00000 0 22308612.630 4137921.438 11675417.990 10 0 60014 17100.00000 0 20701328.810 4170038.925 14323970.384 10 0 60014 18000.00000 0 18796135.258 4369924.226 16694572.942 10 0 60014 18900.00000 0 16646062.720 4770230.617 18741235.753 10 0 60014 19800.00000 0 14311440.252 5393127.777 20424249.944 10 0 60014 20700.00000 0 11857531.284 6249161.789 21710954.375 10 0 60014 21600.00000 0 9351979.106 7336613.596 22576366.448 10 0 60014 22500.00000 0 6862167.390 8641383.697 23003665.331 10 0 60014 23400.00000 0 4452604.751 10137408.900 22984518.583 10 0 60014 24300.00000 0 2182441.148 11787594.900 22519246.033 10 0 60014 25200.00000 0 103218.476 13545226.938 21616817.667 10 0 60014 26100.00000 0 -1743052.001 15355800.855 20294685.234 10 0 60014 27000.00000 0 -3325406.214 17159199.206 18578450.274 10 0 60014 27900.00000 0 -4624975.446 18892122.509 16501374.265 10 0 60014 28800.00000 0 -5635523.039 20490674.676 14103739.602 10 0 60014 29700.00000 0 -6363447.882 21892994.862 11432073.008 10 0 60014 30600.00000 0 -6827255.200 23041825.598 8538245.789 10 0 60014 31500.00000 0 -7056517.490 23886909.255 5478467.968 10 0 60014 32400.00000 0 -7090370.055 24387111.739 2312195.684 10 0 60014 33300.00000 0 -6975605.313 24512183.536 -899026.835 10 0 60014 34200.00000 0 -6764447.200 24244083.188 -4092767.752 10 0 60014 35100.00000 0 -6512100.647 23577806.792 -7206926.648 10 0 60014 36000.00000 0 -6274180.834 22521687.840 -10180947.650 10 0 60014 36900.00000 0 -6104131.969 21097154.210 -12957002.283 10 0 60014 37800.00000 0 -6050745.850 19337952.077 -15481118.384 10 0 60014 38700.00000 0 -6155886.103 17288869.027 -17704232.632 10 0 60014 39600.00000 0 -6452515.141 15004009.789 -19583145.874 10 0 60014 40500.00000 0 -6963107.902 12544696.715 -21081362.681 10 0 60014 41400.00000 0 -7698519.940 9977082.733 -22169798.966 10 0 60014 42300.00000 0 -8657358.113 7369576.338 -22827344.256 10 0 60014 43200.00000 0 -9825880.847 4790185.813 -23041268.179 10 0 60014 44100.00000 0 -11178432.649 2303892.846 -22807463.753 10 0 60014 45000.00000 0 -12678395.086 -29835.637 -22130523.206 10 0 60014 45900.00000 0 -14279614.775 -2159294.735 -21023645.213 10 0 60014 46800.00000 0 -15928248.976 -4042455.397 -19508375.538 10 0 60014 47700.00000 0 -17564951.842 -5648466.308 -17614186.211 10 0 60014 48600.00000 0 -19127310.063 -6958682.567 -15377901.343 10 0 60014 49500.00000 0 -20552426.127 -7967179.698 -12842980.596 10 0 60014 50400.00000 0 -21779541.071 -8680732.986 -10058674.098 10 0 60014 51300.00000 0 -22752586.832 -9118264.538 -7079065.107 10 0 60014 52200.00000 0 -23422561.116 -9309782.730 -3962018.953 10 0 60014 53100.00000 0 -23749625.021 -9294859.975 -768058.788 10 0 60014 54000.00000 0 -23704835.233 -9120714.159 2440809.891 10 0 60014 54900.00000 0 -23271437.898 -8839975.629 5602302.924 10 0 60014 55800.00000 0 -22445669.685 -8508234.843 8655065.746 10 0 60014 56700.00000 0 -21237032.216 -8181474.850 11539862.630 10 0 60014 57600.00000 0 -19668028.118 -7913497.485 14200723.789 10 0 60014 58500.00000 0 -17773369.463 -7753452.245 16586028.142 10 0 60014 59400.00000 0 -15598691.330 -7743572.307 18649501.043 10 0 60014 60300.00000 0 -13198823.741 -7917213.323 20351108.028 10 0 60014 61200.00000 0 -10635693.448 -8297277.758 21657827.758 10 0 60014 62100.00000 0 -7975942.273 -8895091.404 22544289.754 10 0 60014 63000.00000 0 -5288360.190 -9709779.708 22993265.072 10 0 60014 63900.00000 0 -2641238.967 -10728170.778 22996000.776 10 0 60014 64800.00000 0 -99755.298 -11925229.966 22552391.938 10 0 60014 65700.00000 0 2276508.919 -13265008.833 21670987.726 10 0 60014 66600.00000 0 4435807.044 -14702069.839 20368831.182 10 0 60014 67500.00000 0 6336136.700 -16183328.160 18671135.205 10 0 60014 68400.00000 0 7946738.666 -17650234.524 16610800.290 10 0 60014 69300.00000 0 9249123.900 -19041208.327 14227782.598 10 0 60014 70200.00000 0 10237586.482 -20294219.557 11568323.791 10 0 60014 71100.00000 0 10919181.640 -21349411.349 8684056.940 10 0 60014 72000.00000 0 11313170.403 -22151652.851 5631005.394 10 0 60014 72900.00000 0 11449954.890 -22652914.638 2468493.920 10 0 60014 73800.00000 0 11369549.797 -22814365.989 -742006.686 10 0 60014 74700.00000 0 11119655.340 -22608104.866 -3938078.612 10 0 60014 75600.00000 0 10753413.938 -22018446.763 -7057575.767 10 0 60014 76500.00000 0 10326946.384 -21042717.183 -10039837.852 10 0 60014 77400.00000 0 9896772.682 -19691513.496 -12826875.315 10 0 60014 78300.00000 0 9517227.579 -17988424.403 -15364501.513 10 0 60014 79200.00000 0 9237980.940 -15969218.192 -17603389.517 10 0 60014 80100.00000 0 9101768.552 -13680533.370 -19500032.689 10 0 60014 81000.00000 0 9142429.772 -11178126.200 -21017590.294 10 0 60014 81900.00000 0 9383335.321 -8524748.101 -22126601.904 10 0 60014 82800.00000 0 9836271.817 -5787741.325 -22805557.019 10 0 60014 83700.00000 0 10500830.285 -3036452.798 -23041309.335 10 0 60014 84600.00000 0 11364324.547 -339573.364 -22829328.104 10 0 60014 85500.00000 0 12402243.085 2237487.370 -22173782.151 10 0 60015 0.00000 0 13579215.464 4635081.999 -21087455.393 10 0 60015 900.00000 0 14850453.564 6801561.056 -19591495.055 10 0 60015 1800.00000 0 16163605.701 8695168.403 -17714999.096 10 0 60015 2700.00000 0 17460948.084 10285522.848 -15494448.866 10 0 60015 3600.00000 0 18681820.202 11554622.289 -12972999.247 10 0 60015 4500.00000 0 19765202.545 12497331.206 -10199639.436 10 0 60015 5400.00000 0 20652328.263 13121332.326 -7228240.628 10 0 60015 6300.00000 0 21289218.944 13446545.967 -4116509.063 10 0 60015 7200.00000 0 21629037.746 13504042.812 -924864.859 10 0 60015 8100.00000 0 21634160.708 13334497.137 2284731.460 10 0 60015 9000.00000 0 21277878.889 12986246.758 5449981.768 10 0 60015 9900.00000 0 20545659.458 12513042.427 8509458.849 10 0 60015 10800.00000 0 19435912.379 11971582.322 11403797.050 10 0 60015 11700.00000 0 17960230.093 11418936.195 14076841.902 10 0 60015 12600.00000 0 16143089.655 10909968.142 16476736.478 10 0 60015 13500.00000 0 14021029.218 10494866.826 18556923.676 10 0 60015 14400.00000 0 11641332.584 10216887.261 20277045.430 10 0 60015 15300.00000 0 9060275.960 10110399.244 21603721.886 10 0 60015 16200.00000 0 6341009.052 10199324.510 22511196.024 10 0 60015 17100.00000 0 3551157.631 10496028.436 22981831.745 10 0 60015 18000.00000 0 760246.216 11000713.054 23006456.158 10 0 60015 18900.00000 0 -1962953.257 11701337.310 22584539.633 10 0 60015 19800.00000 0 -4553037.790 12574068.517 21724210.073 10 0 60015 20700.00000 0 -6950447.066 13584246.827 20442100.830 10 0 60015 21600.00000 0 -9103692.796 14687823.131 18763034.655 10 0 60015 22500.00000 0 -10971251.793 15833210.886 16719549.074 10 0 60015 23400.00000 0 -12523044.610 16963474.875 14351271.607 10 0 60015 24300.00000 0 -13741438.719 18018765.491 11704156.136 10 0 60015 25200.00000 0 -14621734.831 18938896.482 8829594.542 10 0 60015 26100.00000 0 -15172116.514 19665957.600 5783420.421 10 0 60015 27000.00000 0 -15413065.778 20146851.809 2624824.029 10 0 60015 27900.00000 0 -15376269.829 20335649.427 -584800.415 10 0 60015 28800.00000 0 -15103065.731 20195659.061 -3783052.205 10 0 60015 29700.00000 0 -14642489.398 19701126.966 -6907742.571 10 0 60015 30600.00000 0 -14049012.150 18838492.080 -9898109.622 10 0 60015 31500.00000 0 -13380061.402 17607142.731 -12696005.365 10 0 60015 32400.00000 0 -12693431.134 16019642.189 -15247031.048 10 0 60015 33300.00000 0 -12044692.411 14101412.659 -17501598.213 10 0 60015 34200.00000 0 -11484714.011 11889890.257 -19415894.472 10 0 60015 35100.00000 0 -11057398.346 9433185.776 -20952735.185 10 0 60015 36000.00000 0 -10797728.516 6788306.709 -22082284.629 10 0 60015 36900.00000 0 -10730208.969 4019014.395 -22782632.974 10 0 60015 37800.00000 0 -10867765.417 1193405.129 -23040218.328 10 0 60015 38700.00000 0 -11211150.223 -1618684.488 -22850086.150 10 0 60015 39600.00000 0 -11748878.084 -4348340.603 -22215981.447 10 0 60015 40500.00000 0 -12457694.535 -6930193.508 -21150272.333 10 0 60015 41400.00000 0 -13303557.441 -9304889.252 -19673706.667 10 0 60015 42300.00000 0 -14243090.086 -11421309.564 -17815006.570 10 0 60015 43200.00000 0 -15225444.702 -13238448.808 -15610308.668 10 0 60015 44100.00000 0 -16194498.017 -14726870.933 -13102460.810 10 0 60015 45000.00000 0 -17091286.388 -15869686.865 -10340188.776 10 0 60015 45900.00000 0 -17856577.934 -16663012.842 -7377149.065 10 0 60015 46800.00000 0 -18433473.262 -17115891.832 -4270886.095 10 0 60015 47700.00000 0 -18769925.016 -17249682.655 -1081714.162 10 0 60015 48600.00000 0 -18821069.881 -17096943.737 2128453.993 10 0 60015 49500.00000 0 -18551274.489 -16699859.593 5297309.081 10 0 60015 50400.00000 0 -17935808.687 -16108277.276 8363354.022 10 0 60015 51300.00000 0 -16962075.329 -15377436.336 11267095.960 10 0 60015 52200.00000 0 -15630344.339 -14565488.510 13952198.356 10 0 60015 53100.00000 0 -13953959.653 -13730912.045 16366570.860 10 0 60015 54000.00000 0 -11959009.597 -12929929.708 18463376.095 10 0 60015 54900.00000 0 -9683473.694 -12214039.153 20201934.248 10 0 60015 55800.00000 0 -7175880.562 -11627759.385 21548508.424 10 0 60015 56700.00000 0 -4493531.809 -11206687.830 22476956.124 10 0 60015 57600.00000 0 -1700364.674 -10975949.421 22969234.730 10 0 60015 58500.00000 0 1135458.893 -10949102.687 23015751.613 10 0 60015 59400.00000 0 3944137.841 -11127548.772 22615552.272 10 0 60015 60300.00000 0 6656886.167 -11500468.345 21776342.814 10 0 60015 61200.00000 0 9208546.527 -12045289.426 20514346.043 10 0 60015 62100.00000 0 11540055.754 -12728666.973 18853993.400 10 0 60015 63000.00000 0 13600660.666 -13507933.654 16827457.990 10 0 60015 63900.00000 0 15349792.567 -14332961.407 14474036.948 10 0 60015 64800.00000 0 16758522.884 -15148355.912 11839394.318 10 0 60015 65700.00000 0 17810539.574 -15895891.879 8974678.445 10 0 60015 66600.00000 0 18502603.790 -16517086.498 5935530.538 10 0 60015 67500.00000 0 18844468.106 -16955802.252 2781003.470 10 0 60015 68400.00000 0 18858260.132 -17160768.671 -427588.137 10 0 60015 69300.00000 0 18577358.002 -17087915.686 -3627863.780 10 0 60015 70200.00000 0 18044805.775 -16702419.058 -6757595.066 10 0 60015 71100.00000 0 17311336.292 -15980370.344 -9755921.454 10 0 60015 72000.00000 0 16433085.773 -14909999.728 -12564539.261 10 0 60015 72900.00000 0 15469097.432 -13492399.025 -15128840.143 10 0 60015 73800.00000 0 14478720.262 -11741713.279 -17398976.364 10 0 60015 74700.00000 0 13519013.425 -9684791.952 -19330831.746 10 0 60015 75600.00000 0 12642266.160 -7360313.470 -20886879.387 10 0 60015 76500.00000 0 11893738.025 -4817419.012 -22036909.574 10 0 60015 77400.00000 0 11309714.656 -2113912.045 -22758614.092 10 0 60015 78300.00000 0 10915960.698 685901.921 -23038016.038 10 0 60015 79200.00000 0 10726634.637 3513645.923 -22869737.284 10 0 60015 80100.00000 0 10743710.685 6299471.927 -22257098.859 10 0 60015 81000.00000 0 10956931.490 8974723.519 -21212052.691 10 0 60015 81900.00000 0 11344293.152 11474550.956 -19754946.247 10 0 60015 82800.00000 0 11873041.633 13740370.603 -17914124.738 10 0 60015 83700.00000 0 12501138.232 15722067.336 -15725378.605 10 0 60015 84600.00000 0 13179132.095 17379849.175 -13231246.880 10 0 60015 85500.00000 0 13852360.584 18685677.824 -10480189.824 10 0 60016 0.00000 0 14463384.450 19624216.432 -7525647.105 10 0 60016 900.00000 0 14954555.228 20193256.542 -4424998.100 10 0 60016 1800.00000 0 15270605.441 20403606.317 -1238448.641 10 0 60016 2700.00000 0 15361153.178 20278447.574 1972139.357 10 0 60016 3600.00000 0 15183014.167 19852188.390 5144448.532 10 0 60016 4500.00000 0 14702223.808 19168861.049 8216914.982 10 0 60016 5400.00000 0 13895683.404 18280133.483 11129921.568 10 0 60016 6300.00000 0 12752360.723 17243018.488 13826952.424 10 0 60016 7200.00000 0 11273993.755 16117377.533 16255686.299 10 0 60016 8100.00000 0 9475267.326 14963324.323 18369007.815 10 0 60016 9000.00000 0 7383454.233 13838637.242 20125917.435 10 0 60016 9900.00000 0 5037534.866 12796289.170 21492322.976 10 0 60016 10800.00000 0 2486830.876 11882198.007 22441697.904 10 0 60016 11700.00000 0 -210791.474 11133291.866 22955594.202 10 0 60016 12600.00000 0 -2991074.837 10575969.666 23024000.236 10 0 60016 13500.00000 0 -5785793.050 10225021.309 22645536.928 10 0 60016 14400.00000 0 -8525342.866 10083052.477 21827488.404 10 0 60016 15300.00000 0 -11141398.684 10140438.134 20585666.223 10 0 60016 16200.00000 0 -13569521.114 10375806.734 18944109.287 10 0 60016 17100.00000 0 -15751611.803 10757035.040 16934624.541 10 0 60016 18000.00000 0 -17638113.015 11242711.981 14596176.541 10 0 60016 18900.00000 0 -19189860.794 11784010.222 11974136.930 10 0 60016 19800.00000 0 -20379514.681 12326886.748 9119407.669 10 0 60016 20700.00000 0 -21192504.368 12814519.630 6087434.555 10 0 60016 21600.00000 0 -21627453.845 13189877.851 2937129.970 10 0 60016 22500.00000 0 -21696065.431 13398315.106 -270274.201 10 0 60016 23400.00000 0 -21422468.853 13390077.153 -3472420.758 10 0 60016 24300.00000 0 -20842063.201 13122615.745 -6607044.734 10 0 60016 25200.00000 0 -19999901.065 12562610.156 -9613189.871 10 0 60016 26100.00000 0 -18948683.666 11687609.693 -12432399.589 10 0 60016 27000.00000 0 -17746452.192 10487226.584 -15009858.540 10 0 60016 27900.00000 0 -16454073.389 8963827.764 -17295462.023 10 0 60016 28800.00000 0 -15132626.005 7132695.289 -19244792.074 10 0 60016 29700.00000 0 -13840798.604 5021647.630 -20819981.140 10 0 60016 30600.00000 0 -12632408.520 2670136.764 -21990446.734 10 0 60016 31500.00000 0 -11554146.302 127858.047 -22733483.051 10 0 60016 32400.00000 0 -10643640.173 -2547069.828 -23034698.540 10 0 60016 33300.00000 0 -9927921.326 -5290279.575 -22888291.429 10 0 60016 34200.00000 0 -9422353.835 -8033594.837 -22297158.303 10 0 60016 35100.00000 0 -9130073.295 -10707633.629 -21272834.029 10 0 60016 36000.00000 0 -9041956.930 -13244468.080 -19835264.415 10 0 60016 36900.00000 0 -9137125.553 -15580230.526 -18012416.159 10 0 60016 37800.00000 0 -9383955.462 -17657558.234 -15839731.599 10 0 60016 38700.00000 0 -9741556.985 -19427775.743 -13359438.792 10 0 60016 39600.00000 0 -10161656.731 -20852724.619 -10619730.153 10 0 60016 40500.00000 0 -10590803.710 -21906165.130 -7673825.530 10 0 60016 41400.00000 0 -10972805.730 -22574692.164 -4578937.842 10 0 60016 42300.00000 0 -11251292.833 -22858127.963 -1395161.434 10 0 60016 43200.00000 0 -11372299.110 -22769376.191 1815695.103 10 0 60016 44100.00000 0 -11286753.464 -22333744.391 4991308.826 10 0 60016 45000.00000 0 -10952773.720 -21587764.138 8070051.485 10 0 60016 45900.00000 0 -10337666.835 -20577559.267 10992184.114 10 0 60016 46800.00000 0 -9419550.314 -19356831.326 13701013.906 10 0 60016 47700.00000 0 -8188525.929 -17984547.352 16143991.005 10 0 60016 48600.00000 0 -6647355.648 -16522427.277 18273724.175 10 0 60016 49500.00000 0 -4811610.458 -15032336.385 20048896.077 10 0 60016 50400.00000 0 -2709284.790 -13573691.990 21435060.889 10 0 60016 51300.00000 0 -379891.457 -12200992.577 22405309.396 10 0 60016 52200.00000 0 2126926.525 -10961572.360 22940789.188 10 0 60016 53100.00000 0 4753210.783 -9893674.664 23031070.294 10 0 60016 54000.00000 0 7434855.065 -9024924.153 22674349.395 10 0 60016 54900.00000 0 10104036.672 -8371261.319 21877488.644 10 0 60016 55800.00000 0 12691812.078 -7936383.430 20655888.037 10 0 60016 56700.00000 0 15130770.001 -7711715.064 19033193.322 10 0 60016 57600.00000 0 17357632.543 -7676909.302 17040844.346 10 0 60016 58500.00000 0 19315696.767 -7800858.479 14717471.815 10 0 60016 59400.00000 0 20957015.396 -8043171.940 12108153.350 10 0 60016 60300.00000 0 22244225.830 -8356058.551 9263542.530 10 0 60016 61200.00000 0 23151951.053 -8686534.389 6238887.378 10 0 60016 62100.00000 0 23667713.734 -8978862.124 3092957.070 10 0 60016 63000.00000 0 23792325.149 -9177118.454 -113102.242 10 0 60016 63900.00000 0 23539732.592 -9227780.298 -3316959.852 10 0 60016 64800.00000 0 22936331.851 -9082219.374 -6456317.477 10 0 60016 65700.00000 0 22019773.957 -8698998.542 -9470126.376 10 0 60016 66600.00000 0 20837316.892 -8045871.578 -12299780.146 10 0 60016 67500.00000 0 19443792.197 -7101400.633 -14890259.296 10 0 60016 68400.00000 0 17899272.659 -5856121.822 -17191204.753 10 0 60016 69300.00000 0 16266539.818 -4313208.657 -19157899.045 10 0 60016 70200.00000 0 14608458.191 -2488604.253 -20752135.950 10 0 60016 71100.00000 0 12985366.837 -410615.730 -21942961.854 10 0 60016 72000.00000 0 11452597.783 1881013.121 -22707274.669 10 0 60016 72900.00000 0 10058225.186 4336512.967 -23030269.153 10 0 60016 73800.00000 0 8841139.073 6897925.725 -22905720.478 10 0 60016 74700.00000 0 7829523.656 9501291.087 -22336100.987 10 0 60016 75600.00000 0 7039803.048 12079092.390 -21332528.313 10 0 60016 76500.00000 0 6476097.480 14562860.615 -19914546.054 10 0 60016 77400.00000 0 6130211.706 16885828.718 -18109741.451 10 0 60016 78300.00000 0 5982154.932 18985526.374 -15953207.435 10 0 60016 79200.00000 0 6001169.325 20806207.625 -13486859.406 10 0 60016 80100.00000 0 6147222.841 22301010.791 -10758619.891 10 0 60016 81000.00000 0 6372902.599 23433761.086 -7821486.819 10 0 60016 81900.00000 0 6625628.191 24180341.273 -4732503.430 10 0 60016 82800.00000 0 6850090.851 24529573.646 -1551649.923 10 0 60016 83700.00000 0 6990814.875 24483577.122 1659321.515 10 0 60016 84600.00000 0 6994732.587 24057585.169 4838085.514 10 0 60016 85500.00000 0 6813663.570 23279232.911 7922952.619 99